This is the latest recevied weather packets stored in our database for station/object KD4MBW. If no packets are shown the sender has not sent any weather packets the latest 10 day(s).
| Time | Temp. | Humidity | Pressure | Rain* | Wind** | Luminosity | Snow |
|---|---|---|---|---|---|---|---|
| 1787831149 | 25° C | 97% | 1014.7 hPa | 0 mm | - | 31 W/m² | - |
| 1787830846 | 25° C | 97% | 1014.7 hPa | 0 mm | - | 23 W/m² | - |
| 1787830545 | 25° C | 97% | 1014.5 hPa | 0 mm | - | 18 W/m² | - |
| 1787830244 | 25° C | 97% | 1014.7 hPa | 0 mm | - | 12 W/m² | - |
| 1787829939 | 25° C | 95% | 1014.9 hPa | 0 mm | - | 8 W/m² | - |
| 1787829638 | 25° C | 95% | 1014.9 hPa | 0 mm | - | 5 W/m² | - |
| 1787829335 | 25° C | 95% | 1015 hPa | 0 mm | - | 3 W/m² | - |
| 1787829030 | 25° C | 95% | 1014.9 hPa | 0 mm | - | 1 W/m² | - |
| 1787828726 | 25° C | 96% | 1015 hPa | 0 mm | - | 0 W/m² | - |
| 1787828422 | 25.56° C | 95% | 1014.9 hPa | 0 mm | - | 0 W/m² | - |
| 1787828120 | 25.56° C | 95% | 1014.5 hPa | 0 mm | - | 0 W/m² | - |
| 1787827820 | 25.56° C | 94% | 1014.6 hPa | 0 mm | - | 0 W/m² | - |
| 1787827515 | 25° C | 99% | 1014.6 hPa | 0 mm | - | 0 W/m² | - |
| 1787827215 | 25° C | 99% | 1014.4 hPa | 0 mm | - | 0 W/m² | - |
| 1787826914 | 25° C | 99% | 1014.3 hPa | 0 mm | - | 0 W/m² | - |
| 1787826609 | 25° C | 99% | 1014.5 hPa | 0 mm | - | 0 W/m² | - |
| 1787826305 | 25° C | 99% | 1014.6 hPa | 0 mm | - | 0 W/m² | - |
| 1787826000 | 25° C | 99% | 1014.6 hPa | 0 mm | - | 0 W/m² | - |
| 1787825699 | 25° C | 99% | 1014.4 hPa | 0 mm | - | 0 W/m² | - |
| 1787825398 | 25° C | 99% | 1014.6 hPa | 0 mm | - | 0 W/m² | - |
| 1787825097 | 24.44° C | 99% | 1014.7 hPa | 0 mm | - | 0 W/m² | - |
| 1787824794 | 24.44° C | 99% | 1014.4 hPa | 0 mm | - | 0 W/m² | - |
| 1787824489 | 24.44° C | 99% | 1014.3 hPa | 0 mm | - | 0 W/m² | - |
| 1787824184 | 24.44° C | 99% | 1014.5 hPa | 0 mm | - | 0 W/m² | - |
| 1787823880 | 24.44° C | 99% | 1014.4 hPa | 0 mm | - | 0 W/m² | - |
* Rain latest hour (hover to see other rain measurements)
** Current wind speed in m/s (hover to see current wind gust speed)